contact:dominique.lefevre@mio.osupytheas.fr, maurice.libes@osupytheas.fr, didier.mallarino@osupytheas.fr
Project:EMSO http://www.emso-fr.org/EMSO-France
Depth: 2436.0 m
Title:EMSO Ligure Ouest : Data MII capteur MICROCAT
DateTime_Computer,Latitude,Longitude,Temperature,Conductivity,Pressure,DateTime_Instrument
DateTime_Computer,Latitude,Longitude,degC,S m-1,dbar,DateTime_Instrument
2021-10-21T00:00:21Z,42.805,6.029,13.2992,4.60008,2470.39,2021-10-21T02:01:45Z
2021-10-21T00:03:25Z,42.805,6.029,13.2991,4.60009,2470.39,2021-10-21T02:04:48Z
2021-10-21T00:06:28Z,42.805,6.029,13.2993,4.60007,2470.38,2021-10-21T02:07:52Z
2021-10-21T00:09:31Z,42.805,6.029,13.2991,4.60007,2470.366,2021-10-21T02:10:55Z
2021-10-21T00:12:34Z,42.805,6.029,13.2991,4.60008,2470.366,2021-10-21T02:13:58Z
2021-10-21T00:15:37Z,42.805,6.029,13.2993,4.60007,2470.366,2021-10-21T02:17:01Z
2021-10-21T00:18:40Z,42.805,6.029,13.2993,4.60007,2470.366,2021-10-21T02:20:04Z
2021-10-21T00:21:43Z,42.805,6.029,13.2991,4.60007,2470.366,2021-10-21T02:23:07Z
2021-10-21T00:24:46Z,42.805,6.029,13.2991,4.60008,2470.39,2021-10-21T02:26:10Z
2021-10-21T00:27:50Z,42.805,6.029,13.2995,4.60007,2470.366,2021-10-21T02:29:13Z
2021-10-21T00:30:53Z,42.805,6.029,13.2990,4.60009,2470.366,2021-10-21T02:32:17Z
2021-10-21T00:33:56Z,42.805,6.029,13.2991,4.60008,2470.343,2021-10-21T02:35:20Z
2021-10-21T00:36:59Z,42.805,6.029,13.2990,4.60008,2470.366,2021-10-21T02:38:23Z
2021-10-21T00:40:02Z,42.805,6.029,13.2992,4.60009,2470.39,2021-10-21T02:41:26Z
2021-10-21T00:43:05Z,42.805,6.029,13.2986,4.60007,2470.343,2021-10-21T02:44:29Z
2021-10-21T00:46:08Z,42.805,6.029,13.2995,4.60007,2470.38,2021-10-21T02:47:32Z
2021-10-21T00:49:11Z,42.805,6.029,13.2990,4.60008,2470.366,2021-10-21T02:50:35Z
2021-10-21T00:52:15Z,42.805,6.029,13.2991,4.60009,2470.366,2021-10-21T02:53:38Z
2021-10-21T00:55:18Z,42.805,6.029,13.2991,4.60008,2470.39,2021-10-21T02:56:42Z
2021-10-21T00:58:21Z,42.805,6.029,13.2991,4.60008,2470.357,2021-10-21T02:59:45Z
2021-10-21T01:01:24Z,42.805,6.029,13.2991,4.60008,2470.38,2021-10-21T03:02:48Z
2021-10-21T01:04:27Z,42.805,6.029,13.2991,4.60006,2470.343,2021-10-21T03:05:51Z
2021-10-21T01:07:30Z,42.805,6.029,13.2991,4.60006,2470.366,2021-10-21T03:08:54Z
2021-10-21T01:10:33Z,42.805,6.029,13.2990,4.60009,2470.357,2021-10-21T03:11:57Z
2021-10-21T01:13:36Z,42.805,6.029,13.2991,4.60007,2470.32,2021-10-21T03:15:00Z
2021-10-21T01:16:40Z,42.805,6.029,13.2993,4.60007,2470.343,2021-10-21T03:18:03Z
2021-10-21T01:19:43Z,42.805,6.029,13.2990,4.60006,2470.32,2021-10-21T03:21:07Z
2021-10-21T01:22:46Z,42.805,6.029,13.2993,4.60009,2470.357,2021-10-21T03:24:10Z
2021-10-21T01:25:49Z,42.805,6.029,13.2991,4.60006,2470.357,2021-10-21T03:27:13Z
2021-10-21T01:28:52Z,42.805,6.029,13.2993,4.60007,2470.343,2021-10-21T03:30:16Z
2021-10-21T01:31:55Z,42.805,6.029,13.2988,4.60007,2470.297,2021-10-21T03:33:19Z
2021-10-21T01:34:58Z,42.805,6.029,13.2990,4.60011,2470.343,2021-10-21T03:36:22Z
2021-10-21T01:38:01Z,42.805,6.029,13.2991,4.60008,2470.357,2021-10-21T03:39:25Z
2021-10-21T01:41:05Z,42.805,6.029,13.2992,4.60006,2470.343,2021-10-21T03:42:28Z
2021-10-21T01:44:08Z,42.805,6.029,13.2991,4.60006,2470.343,2021-10-21T03:45:32Z
2021-10-21T01:47:11Z,42.805,6.029,13.2986,4.60008,2470.343,2021-10-21T03:48:35Z
2021-10-21T01:50:14Z,42.805,6.029,13.2990,4.60007,2470.343,2021-10-21T03:51:38Z
2021-10-21T01:53:17Z,42.805,6.029,13.2991,4.60008,2470.366,2021-10-21T03:54:41Z
2021-10-21T01:56:20Z,42.805,6.029,13.2990,4.60007,2470.343,2021-10-21T03:57:44Z
2021-10-21T01:59:23Z,42.805,6.029,13.2991,4.60007,2470.32,2021-10-21T04:00:47Z
2021-10-21T02:02:26Z,42.805,6.029,13.2991,4.60007,2470.334,2021-10-21T04:03:50Z
2021-10-21T02:05:29Z,42.805,6.029,13.2990,4.60008,2470.343,2021-10-21T04:06:53Z
2021-10-21T02:08:33Z,42.805,6.029,13.2992,4.60009,2470.357,2021-10-21T04:09:57Z
2021-10-21T02:11:36Z,42.805,6.029,13.2988,4.60007,2470.334,2021-10-21T04:13:00Z
2021-10-21T02:14:39Z,42.805,6.029,13.2992,4.60006,2470.357,2021-10-21T04:16:03Z
2021-10-21T02:17:42Z,42.805,6.029,13.2990,4.60008,2470.32,2021-10-21T04:19:06Z
2021-10-21T02:20:45Z,42.805,6.029,13.2991,4.60007,2470.366,2021-10-21T04:22:09Z
2021-10-21T02:23:48Z,42.805,6.029,13.2991,4.60008,2470.32,2021-10-21T04:25:12Z
2021-10-21T02:26:51Z,42.805,6.029,13.2991,4.60006,2470.343,2021-10-21T04:28:15Z
2021-10-21T02:29:54Z,42.805,6.029,13.2993,4.60008,2470.343,2021-10-21T04:31:18Z
2021-10-21T02:32:58Z,42.805,6.029,13.2990,4.60008,2470.366,2021-10-21T04:34:22Z
2021-10-21T02:36:01Z,42.805,6.029,13.2993,4.60006,2470.366,2021-10-21T04:37:25Z
2021-10-21T02:39:04Z,42.805,6.029,13.2989,4.60007,2470.366,2021-10-21T04:40:28Z
2021-10-21T02:42:07Z,42.805,6.029,13.2993,4.60013,2470.343,2021-10-21T04:43:31Z
2021-10-21T02:45:10Z,42.805,6.029,13.2990,4.60014,2470.366,2021-10-21T04:46:34Z
2021-10-21T02:48:13Z,42.805,6.029,13.2994,4.60009,2470.343,2021-10-21T04:49:37Z
2021-10-21T02:51:16Z,42.805,6.029,13.2991,4.60008,2470.366,2021-10-21T04:52:40Z
2021-10-21T02:54:19Z,42.805,6.029,13.2991,4.60010,2470.343,2021-10-21T04:55:43Z
2021-10-21T02:57:23Z,42.805,6.029,13.2991,4.60008,2470.38,2021-10-21T04:58:47Z
2021-10-21T03:00:26Z,42.805,6.029,13.2993,4.60008,2470.366,2021-10-21T05:01:50Z
2021-10-21T03:03:29Z,42.805,6.029,13.2991,4.60007,2470.366,2021-10-21T05:04:53Z
2021-10-21T03:06:32Z,42.805,6.029,13.2992,4.60008,2470.366,2021-10-21T05:07:56Z
2021-10-21T03:09:35Z,42.805,6.029,13.2992,4.60009,2470.366,2021-10-21T05:10:59Z
2021-10-21T03:12:38Z,42.805,6.029,13.2991,4.60007,2470.357,2021-10-21T05:14:02Z
2021-10-21T03:15:41Z,42.805,6.029,13.2990,4.60009,2470.38,2021-10-21T05:17:05Z
2021-10-21T03:18:44Z,42.805,6.029,13.2992,4.60009,2470.38,2021-10-21T05:20:08Z
2021-10-21T03:21:48Z,42.805,6.029,13.2991,4.60006,2470.366,2021-10-21T05:23:12Z
2021-10-21T03:24:51Z,42.805,6.029,13.2991,4.60008,2470.404,2021-10-21T05:26:15Z
2021-10-21T03:27:54Z,42.805,6.029,13.2991,4.60008,2470.427,2021-10-21T05:29:18Z
2021-10-21T03:30:57Z,42.805,6.029,13.2992,4.60008,2470.38,2021-10-21T05:32:21Z
2021-10-21T03:34:00Z,42.805,6.029,13.2990,4.60006,2470.404,2021-10-21T05:35:24Z
2021-10-21T03:37:03Z,42.805,6.029,13.2991,4.60008,2470.366,2021-10-21T05:38:27Z
2021-10-21T03:40:06Z,42.805,6.029,13.2990,4.60007,2470.39,2021-10-21T05:41:30Z
2021-10-21T03:43:09Z,42.805,6.029,13.2993,4.60008,2470.413,2021-10-21T05:44:33Z
2021-10-21T03:46:13Z,42.805,6.029,13.2991,4.60008,2470.39,2021-10-21T05:47:37Z
2021-10-21T03:49:16Z,42.805,6.029,13.2990,4.60007,2470.427,2021-10-21T05:50:40Z
2021-10-21T03:52:19Z,42.805,6.029,13.2994,4.60006,2470.404,2021-10-21T05:53:43Z
2021-10-21T03:55:22Z,42.805,6.029,13.2990,4.60008,2470.404,2021-10-21T05:56:46Z
2021-10-21T03:58:25Z,42.805,6.029,13.2990,4.60007,2470.404,2021-10-21T05:59:49Z
2021-10-21T04:01:28Z,42.805,6.029,13.2995,4.60008,2470.404,2021-10-21T06:02:52Z
2021-10-21T04:04:31Z,42.805,6.029,13.2995,4.60009,2470.413,2021-10-21T06:05:55Z
2021-10-21T04:07:34Z,42.805,6.029,13.2993,4.60008,2470.404,2021-10-21T06:08:58Z
2021-10-21T04:10:38Z,42.805,6.029,13.2993,4.60008,2470.404,2021-10-21T06:12:02Z
2021-10-21T04:13:41Z,42.805,6.029,13.2993,4.60008,2470.45,2021-10-21T06:15:05Z
2021-10-21T04:16:44Z,42.805,6.029,13.2994,4.60007,2470.437,2021-10-21T06:18:08Z
2021-10-21T04:19:47Z,42.805,6.029,13.2992,4.60007,2470.45,2021-10-21T06:21:11Z
2021-10-21T04:22:50Z,42.805,6.029,13.2994,4.60008,2470.437,2021-10-21T06:24:14Z
2021-10-21T04:25:53Z,42.805,6.029,13.2989,4.60009,2470.427,2021-10-21T06:27:17Z
2021-10-21T04:28:56Z,42.805,6.029,13.2991,4.60008,2470.39,2021-10-21T06:30:20Z
2021-10-21T04:31:59Z,42.805,6.029,13.2991,4.60008,2470.413,2021-10-21T06:33:23Z
2021-10-21T04:35:03Z,42.805,6.029,13.2991,4.60010,2470.437,2021-10-21T06:36:26Z
2021-10-21T04:38:06Z,42.805,6.029,13.2990,4.60008,2470.437,2021-10-21T06:39:30Z
2021-10-21T04:41:09Z,42.805,6.029,13.2992,4.60008,2470.413,2021-10-21T06:42:33Z
2021-10-21T04:44:12Z,42.805,6.029,13.2991,4.60009,2470.427,2021-10-21T06:45:36Z
2021-10-21T04:47:15Z,42.805,6.029,13.2992,4.60008,2470.413,2021-10-21T06:48:39Z
2021-10-21T04:50:18Z,42.805,6.029,13.2991,4.60009,2470.437,2021-10-21T06:51:42Z
2021-10-21T04:53:21Z,42.805,6.029,13.2994,4.60009,2470.446,2021-10-21T06:54:45Z
2021-10-21T04:56:24Z,42.805,6.029,13.2992,4.60007,2470.413,2021-10-21T06:57:48Z
2021-10-21T04:59:28Z,42.805,6.029,13.2991,4.60008,2470.46,2021-10-21T07:00:51Z
2021-10-21T05:02:31Z,42.805,6.029,13.2990,4.60011,2470.46,2021-10-21T07:03:55Z
2021-10-21T05:05:34Z,42.805,6.029,13.2991,4.60007,2470.46,2021-10-21T07:06:58Z
2021-10-21T05:08:37Z,42.805,6.029,13.2991,4.60007,2470.474,2021-10-21T07:10:01Z
2021-10-21T05:11:40Z,42.805,6.029,13.2992,4.60006,2470.474,2021-10-21T07:13:04Z
2021-10-21T05:14:43Z,42.805,6.029,13.2993,4.60008,2470.46,2021-10-21T07:16:07Z
2021-10-21T05:17:46Z,42.805,6.029,13.2992,4.60009,2470.483,2021-10-21T07:19:10Z
2021-10-21T05:20:49Z,42.805,6.029,13.2991,4.60009,2470.507,2021-10-21T07:22:13Z
2021-10-21T05:23:53Z,42.805,6.029,13.2992,4.60008,2470.474,2021-10-21T07:25:16Z
2021-10-21T05:26:56Z,42.805,6.029,13.2990,4.60009,2470.474,2021-10-21T07:28:20Z
2021-10-21T05:29:59Z,42.805,6.029,13.2992,4.60008,2470.52,2021-10-21T07:31:23Z
2021-10-21T05:33:02Z,42.805,6.029,13.2993,4.60009,2470.474,2021-10-21T07:34:26Z
2021-10-21T05:36:05Z,42.805,6.029,13.2992,4.60009,2470.497,2021-10-21T07:37:29Z
2021-10-21T05:39:08Z,42.805,6.029,13.2991,4.60009,2470.483,2021-10-21T07:40:32Z
2021-10-21T05:42:11Z,42.805,6.029,13.2991,4.60008,2470.507,2021-10-21T07:43:35Z
2021-10-21T05:45:14Z,42.805,6.029,13.2993,4.60009,2470.52,2021-10-21T07:46:38Z
2021-10-21T05:48:17Z,42.805,6.029,13.2993,4.60009,2470.497,2021-10-21T07:49:41Z
2021-10-21T05:51:21Z,42.805,6.029,13.2993,4.60009,2470.483,2021-10-21T07:52:45Z
2021-10-21T05:54:24Z,42.805,6.029,13.2991,4.60009,2470.497,2021-10-21T07:55:48Z
2021-10-21T05:57:27Z,42.805,6.029,13.2993,4.60009,2470.497,2021-10-21T07:58:51Z
2021-10-21T06:00:30Z,42.805,6.029,13.2991,4.60009,2470.507,2021-10-21T08:01:54Z
2021-10-21T06:03:33Z,42.805,6.029,13.2989,4.60009,2470.507,2021-10-21T08:04:57Z
2021-10-21T06:06:36Z,42.805,6.029,13.2991,4.60013,2470.507,2021-10-21T08:08:00Z
2021-10-21T06:09:39Z,42.805,6.029,13.2991,4.60009,2470.507,2021-10-21T08:11:03Z
2021-10-21T06:12:42Z,42.805,6.029,13.2991,4.60009,2470.507,2021-10-21T08:14:06Z
2021-10-21T06:15:46Z,42.805,6.029,13.2995,4.60009,2470.483,2021-10-21T08:17:10Z
2021-10-21T06:18:49Z,42.805,6.029,13.2991,4.60009,2470.53,2021-10-21T08:20:13Z
2021-10-21T06:21:52Z,42.805,6.029,13.2995,4.60010,2470.507,2021-10-21T08:23:16Z
2021-10-21T06:24:55Z,42.805,6.029,13.2993,4.60010,2470.544,2021-10-21T08:26:19Z
2021-10-21T06:27:58Z,42.805,6.029,13.2994,4.60009,2470.544,2021-10-21T08:29:22Z
2021-10-21T06:31:01Z,42.805,6.029,13.2993,4.60010,2470.53,2021-10-21T08:32:25Z
2021-10-21T06:34:04Z,42.805,6.029,13.2992,4.60010,2470.507,2021-10-21T08:35:28Z
2021-10-21T06:37:07Z,42.805,6.029,13.2991,4.60011,2470.52,2021-10-21T08:38:31Z
2021-10-21T06:40:11Z,42.805,6.029,13.2990,4.60011,2470.507,2021-10-21T08:41:34Z
2021-10-21T06:43:14Z,42.805,6.029,13.2990,4.60010,2470.53,2021-10-21T08:44:38Z
2021-10-21T06:46:17Z,42.805,6.029,13.2994,4.60009,2470.53,2021-10-21T08:47:41Z
2021-10-21T06:49:20Z,42.805,6.029,13.2993,4.60010,2470.507,2021-10-21T08:50:44Z
2021-10-21T06:52:23Z,42.805,6.029,13.2991,4.60010,2470.53,2021-10-21T08:53:47Z
2021-10-21T06:55:26Z,42.805,6.029,13.2993,4.60010,2470.553,2021-10-21T08:56:50Z
2021-10-21T06:58:29Z,42.805,6.029,13.2993,4.60010,2470.544,2021-10-21T08:59:53Z
2021-10-21T07:01:32Z,42.805,6.029,13.2992,4.60010,2470.53,2021-10-21T09:02:56Z
2021-10-21T07:04:36Z,42.805,6.029,13.2992,4.60009,2470.577,2021-10-21T09:06:00Z
2021-10-21T07:07:39Z,42.805,6.029,13.2993,4.60010,2470.53,2021-10-21T09:09:03Z
2021-10-21T07:10:42Z,42.805,6.029,13.2993,4.60010,2470.53,2021-10-21T09:12:06Z
2021-10-21T07:13:45Z,42.805,6.029,13.2993,4.60010,2470.52,2021-10-21T09:15:09Z
2021-10-21T07:16:48Z,42.805,6.029,13.2992,4.60010,2470.53,2021-10-21T09:18:12Z
2021-10-21T07:19:51Z,42.805,6.029,13.2997,4.60010,2470.544,2021-10-21T09:21:15Z
2021-10-21T07:22:54Z,42.805,6.029,13.2994,4.60015,2470.52,2021-10-21T09:24:18Z
2021-10-21T07:25:57Z,42.805,6.029,13.2993,4.60011,2470.53,2021-10-21T09:27:21Z
2021-10-21T07:29:01Z,42.805,6.029,13.2993,4.60013,2470.553,2021-10-21T09:30:24Z
2021-10-21T07:32:04Z,42.805,6.029,13.2994,4.60011,2470.553,2021-10-21T09:33:28Z
2021-10-21T07:35:07Z,42.805,6.029,13.2994,4.60012,2470.53,2021-10-21T09:36:31Z
2021-10-21T07:38:10Z,42.805,6.029,13.2995,4.60011,2470.544,2021-10-21T09:39:34Z
2021-10-21T07:41:13Z,42.805,6.029,13.2994,4.60014,2470.553,2021-10-21T09:42:37Z
2021-10-21T07:44:16Z,42.805,6.029,13.2996,4.60010,2470.567,2021-10-21T09:45:40Z
2021-10-21T07:47:19Z,42.805,6.029,13.2990,4.60011,2470.544,2021-10-21T09:48:43Z
2021-10-21T07:50:22Z,42.805,6.029,13.2996,4.60011,2470.53,2021-10-21T09:51:46Z
2021-10-21T07:53:26Z,42.805,6.029,13.2995,4.60011,2470.53,2021-10-21T09:54:49Z
2021-10-21T07:56:29Z,42.805,6.029,13.2992,4.60011,2470.553,2021-10-21T09:57:53Z
2021-10-21T07:59:32Z,42.805,6.029,13.2995,4.60011,2470.53,2021-10-21T10:00:56Z
2021-10-21T08:02:35Z,42.805,6.029,13.2993,4.60011,2470.53,2021-10-21T10:03:59Z
2021-10-21T08:05:38Z,42.805,6.029,13.2996,4.60012,2470.544,2021-10-21T10:07:02Z
2021-10-21T08:08:41Z,42.805,6.029,13.2995,4.60011,2470.53,2021-10-21T10:10:05Z
2021-10-21T08:11:44Z,42.805,6.029,13.2994,4.60012,2470.53,2021-10-21T10:13:08Z
2021-10-21T08:14:47Z,42.805,6.029,13.2998,4.60013,2470.507,2021-10-21T10:16:11Z
2021-10-21T08:17:51Z,42.805,6.029,13.2994,4.60011,2470.52,2021-10-21T10:19:14Z
2021-10-21T08:20:54Z,42.805,6.029,13.2993,4.60011,2470.52,2021-10-21T10:22:18Z
2021-10-21T08:23:57Z,42.805,6.029,13.2994,4.60013,2470.544,2021-10-21T10:25:21Z
2021-10-21T08:27:00Z,42.805,6.029,13.2998,4.60014,2470.507,2021-10-21T10:28:24Z
2021-10-21T08:30:03Z,42.805,6.029,13.2996,4.60014,2470.53,2021-10-21T10:31:27Z
2021-10-21T08:33:06Z,42.805,6.029,13.2994,4.60013,2470.52,2021-10-21T10:34:30Z
2021-10-21T08:36:09Z,42.805,6.029,13.2997,4.60011,2470.539,2021-10-21T10:37:33Z
2021-10-21T08:39:12Z,42.805,6.029,13.2995,4.60011,2470.544,2021-10-21T10:40:36Z
2021-10-21T08:42:16Z,42.805,6.029,13.2996,4.60012,2470.497,2021-10-21T10:43:40Z
2021-10-21T08:45:19Z,42.805,6.029,13.2998,4.60014,2470.483,2021-10-21T10:46:43Z
2021-10-21T08:48:22Z,42.805,6.029,13.2996,4.60011,2470.53,2021-10-21T10:49:46Z
2021-10-21T08:51:25Z,42.805,6.029,13.2996,4.60013,2470.507,2021-10-21T10:52:49Z
2021-10-21T08:54:28Z,42.805,6.029,13.2993,4.60013,2470.46,2021-10-21T10:55:52Z
2021-10-21T08:57:31Z,42.805,6.029,13.2993,4.60011,2470.497,2021-10-21T10:58:55Z
2021-10-21T09:00:34Z,42.805,6.029,13.2995,4.60011,2470.507,2021-10-21T11:01:58Z
2021-10-21T09:03:37Z,42.805,6.029,13.2995,4.60011,2470.483,2021-10-21T11:05:01Z
2021-10-21T09:06:41Z,42.805,6.029,13.2992,4.60018,2470.52,2021-10-21T11:08:05Z
2021-10-21T09:09:44Z,42.805,6.029,13.2992,4.60011,2470.52,2021-10-21T11:11:08Z
2021-10-21T09:12:47Z,42.805,6.029,13.2996,4.60014,2470.483,2021-10-21T11:14:11Z
2021-10-21T09:15:50Z,42.805,6.029,13.2995,4.60012,2470.507,2021-10-21T11:17:14Z
2021-10-21T09:18:53Z,42.805,6.029,13.2993,4.60012,2470.507,2021-10-21T11:20:17Z
2021-10-21T09:21:56Z,42.805,6.029,13.2991,4.60011,2470.507,2021-10-21T11:23:20Z
2021-10-21T09:24:59Z,42.805,6.029,13.2998,4.60013,2470.52,2021-10-21T11:26:23Z
2021-10-21T09:28:03Z,42.805,6.029,13.2996,4.60011,2470.52,2021-10-21T11:29:26Z
2021-10-21T09:31:06Z,42.805,6.029,13.2991,4.60014,2470.483,2021-10-21T11:32:30Z
2021-10-21T09:34:09Z,42.805,6.029,13.2996,4.60014,2470.52,2021-10-21T11:35:33Z
2021-10-21T09:37:12Z,42.805,6.029,13.2993,4.60011,2470.507,2021-10-21T11:38:36Z
2021-10-21T09:40:15Z,42.805,6.029,13.2995,4.60012,2470.483,2021-10-21T11:41:39Z
2021-10-21T09:43:18Z,42.805,6.029,13.2995,4.60011,2470.46,2021-10-21T11:44:42Z
2021-10-21T09:46:21Z,42.805,6.029,13.2992,4.60011,2470.483,2021-10-21T11:47:45Z
2021-10-21T09:49:24Z,42.805,6.029,13.2993,4.60012,2470.52,2021-10-21T11:50:48Z
2021-10-21T09:52:28Z,42.805,6.029,13.2996,4.60011,2470.507,2021-10-21T11:53:51Z
2021-10-21T09:55:31Z,42.805,6.029,13.2993,4.60014,2470.474,2021-10-21T11:56:55Z
2021-10-21T09:58:34Z,42.805,6.029,13.2995,4.60011,2470.474,2021-10-21T11:59:58Z
2021-10-21T10:01:37Z,42.805,6.029,13.2994,4.60022,2470.474,2021-10-21T12:03:01Z
2021-10-21T10:04:40Z,42.805,6.029,13.2993,4.60013,2470.474,2021-10-21T12:06:04Z
2021-10-21T10:07:43Z,42.805,6.029,13.2996,4.60012,2470.483,2021-10-21T12:09:07Z
2021-10-21T10:10:46Z,42.805,6.029,13.2996,4.60012,2470.46,2021-10-21T12:12:10Z
2021-10-21T10:13:49Z,42.805,6.029,13.2994,4.60016,2470.474,2021-10-21T12:15:13Z
2021-10-21T10:16:53Z,42.805,6.029,13.2993,4.60013,2470.507,2021-10-21T12:18:17Z
2021-10-21T10:19:56Z,42.805,6.029,13.2996,4.60016,2470.52,2021-10-21T12:21:20Z
2021-10-21T10:22:59Z,42.805,6.029,13.2995,4.60012,2470.483,2021-10-21T12:24:23Z
2021-10-21T10:26:02Z,42.805,6.029,13.2991,4.60011,2470.483,2021-10-21T12:27:26Z
2021-10-21T10:29:05Z,42.805,6.029,13.2996,4.60019,2470.46,2021-10-21T12:30:29Z
2021-10-21T10:32:08Z,42.805,6.029,13.2992,4.60020,2470.437,2021-10-21T12:33:32Z
2021-10-21T10:35:11Z,42.805,6.029,13.2996,4.60012,2470.497,2021-10-21T12:36:35Z
2021-10-21T10:38:14Z,42.805,6.029,13.2992,4.60012,2470.46,2021-10-21T12:39:38Z
2021-10-21T10:41:18Z,42.805,6.029,13.2995,4.60013,2470.46,2021-10-21T12:42:42Z
2021-10-21T10:44:21Z,42.805,6.029,13.2996,4.60011,2470.483,2021-10-21T12:45:45Z
2021-10-21T10:47:24Z,42.805,6.029,13.2996,4.60011,2470.46,2021-10-21T12:48:48Z
2021-10-21T10:50:27Z,42.805,6.029,13.2998,4.60013,2470.45,2021-10-21T12:51:51Z
2021-10-21T10:53:30Z,42.805,6.029,13.2993,4.60011,2470.46,2021-10-21T12:54:54Z
2021-10-21T10:56:33Z,42.805,6.029,13.2993,4.60011,2470.497,2021-10-21T12:57:57Z
2021-10-21T10:59:36Z,42.805,6.029,13.2995,4.60011,2470.437,2021-10-21T13:01:00Z
2021-10-21T11:02:39Z,42.805,6.029,13.2994,4.60013,2470.413,2021-10-21T13:04:03Z
2021-10-21T11:05:43Z,42.805,6.029,13.2995,4.60014,2470.45,2021-10-21T13:07:07Z
2021-10-21T11:08:46Z,42.805,6.029,13.2995,4.60013,2470.413,2021-10-21T13:10:10Z
2021-10-21T11:11:49Z,42.805,6.029,13.2994,4.60010,2470.474,2021-10-21T13:13:13Z
2021-10-21T11:14:52Z,42.805,6.029,13.2994,4.60011,2470.437,2021-10-21T13:16:16Z
2021-10-21T11:17:55Z,42.805,6.029,13.2995,4.60014,2470.427,2021-10-21T13:19:19Z
2021-10-21T11:20:58Z,42.805,6.029,13.2996,4.60016,2470.46,2021-10-21T13:22:22Z
2021-10-21T11:24:01Z,42.805,6.029,13.2992,4.60014,2470.437,2021-10-21T13:25:25Z
2021-10-21T11:27:05Z,42.805,6.029,13.2995,4.60012,2470.437,2021-10-21T13:28:28Z
2021-10-21T11:30:08Z,42.805,6.029,13.2992,4.60011,2470.437,2021-10-21T13:31:32Z
2021-10-21T11:33:11Z,42.805,6.029,13.2993,4.60011,2470.45,2021-10-21T13:34:35Z
2021-10-21T11:36:14Z,42.805,6.029,13.2993,4.60010,2470.427,2021-10-21T13:37:38Z
2021-10-21T11:39:17Z,42.805,6.029,13.2993,4.60011,2470.437,2021-10-21T13:40:41Z
2021-10-21T11:42:20Z,42.805,6.029,13.2996,4.60012,2470.413,2021-10-21T13:43:44Z
2021-10-21T11:45:23Z,42.805,6.029,13.2994,4.60014,2470.39,2021-10-21T13:46:47Z
2021-10-21T11:48:26Z,42.805,6.029,13.2995,4.60013,2470.376,2021-10-21T13:49:50Z
2021-10-21T11:51:30Z,42.805,6.029,13.2995,4.60011,2470.413,2021-10-21T13:52:54Z
2021-10-21T11:54:33Z,42.805,6.029,13.2993,4.60015,2470.413,2021-10-21T13:55:57Z
2021-10-21T11:57:36Z,42.805,6.029,13.2994,4.60014,2470.413,2021-10-21T13:59:00Z
2021-10-21T12:00:39Z,42.805,6.029,13.2992,4.60018,2470.427,2021-10-21T14:02:03Z
2021-10-21T12:03:42Z,42.805,6.029,13.2994,4.60013,2470.413,2021-10-21T14:05:06Z
2021-10-21T12:06:45Z,42.805,6.029,13.2995,4.60011,2470.39,2021-10-21T14:08:09Z
2021-10-21T12:09:48Z,42.805,6.029,13.2993,4.60011,2470.39,2021-10-21T14:11:12Z
2021-10-21T12:12:51Z,42.805,6.029,13.2993,4.60010,2470.39,2021-10-21T14:14:15Z
2021-10-21T12:15:55Z,42.805,6.029,13.2994,4.60012,2470.39,2021-10-21T14:17:19Z
2021-10-21T12:18:58Z,42.805,6.029,13.2997,4.60011,2470.366,2021-10-21T14:20:22Z
2021-10-21T12:22:01Z,42.805,6.029,13.2994,4.60014,2470.413,2021-10-21T14:23:25Z
2021-10-21T12:25:04Z,42.805,6.029,13.2995,4.60012,2470.366,2021-10-21T14:26:28Z
2021-10-21T12:28:07Z,42.805,6.029,13.2995,4.60011,2470.366,2021-10-21T14:29:31Z
2021-10-21T12:31:10Z,42.805,6.029,13.2993,4.60014,2470.404,2021-10-21T14:32:34Z
2021-10-21T12:34:13Z,42.805,6.029,13.2996,4.60013,2470.357,2021-10-21T14:35:37Z
2021-10-21T12:37:16Z,42.805,6.029,13.2994,4.60014,2470.357,2021-10-21T14:38:40Z
2021-10-21T12:40:20Z,42.805,6.029,13.2994,4.60011,2470.366,2021-10-21T14:41:44Z
2021-10-21T12:43:23Z,42.805,6.029,13.2993,4.60013,2470.366,2021-10-21T14:44:47Z
2021-10-21T12:46:26Z,42.805,6.029,13.2996,4.60014,2470.343,2021-10-21T14:47:50Z
2021-10-21T12:49:29Z,42.805,6.029,13.2996,4.60011,2470.38,2021-10-21T14:50:53Z
2021-10-21T12:52:32Z,42.805,6.029,13.2993,4.60011,2470.306,2021-10-21T14:53:56Z
2021-10-21T12:55:35Z,42.805,6.029,13.2992,4.60011,2470.38,2021-10-21T14:56:59Z
2021-10-21T12:58:38Z,42.805,6.029,13.2993,4.60012,2470.38,2021-10-21T15:00:02Z
2021-10-21T13:01:42Z,42.805,6.029,13.2991,4.60011,2470.366,2021-10-21T15:03:05Z
2021-10-21T13:04:45Z,42.805,6.029,13.2996,4.60011,2470.343,2021-10-21T15:06:09Z
2021-10-21T13:07:48Z,42.805,6.029,13.2993,4.60013,2470.357,2021-10-21T15:09:12Z
2021-10-21T13:10:51Z,42.805,6.029,13.2992,4.60011,2470.357,2021-10-21T15:12:15Z
2021-10-21T13:13:54Z,42.805,6.029,13.2993,4.60011,2470.38,2021-10-21T15:15:18Z
2021-10-21T13:16:57Z,42.805,6.029,13.2991,4.60011,2470.366,2021-10-21T15:18:21Z
2021-10-21T13:20:00Z,42.805,6.029,13.2993,4.60011,2470.343,2021-10-21T15:21:24Z
2021-10-21T13:23:03Z,42.805,6.029,13.2996,4.60019,2470.366,2021-10-21T15:24:27Z
2021-10-21T13:26:07Z,42.805,6.029,13.2993,4.60011,2470.38,2021-10-21T15:27:30Z
2021-10-21T13:29:10Z,42.805,6.029,13.2994,4.60012,2470.366,2021-10-21T15:30:34Z
2021-10-21T13:32:13Z,42.805,6.029,13.2996,4.60017,2470.404,2021-10-21T15:33:37Z
2021-10-21T13:35:16Z,42.805,6.029,13.2996,4.60011,2470.343,2021-10-21T15:36:40Z
2021-10-21T13:38:19Z,42.805,6.029,13.2994,4.60011,2470.32,2021-10-21T15:39:43Z
2021-10-21T13:41:22Z,42.805,6.029,13.2995,4.60011,2470.404,2021-10-21T15:42:46Z
2021-10-21T13:44:25Z,42.805,6.029,13.2993,4.60011,2470.334,2021-10-21T15:45:49Z
2021-10-21T13:47:28Z,42.805,6.029,13.2994,4.60014,2470.334,2021-10-21T15:48:52Z
2021-10-21T13:50:32Z,42.805,6.029,13.2992,4.60012,2470.357,2021-10-21T15:51:56Z
2021-10-21T13:53:35Z,42.805,6.029,13.2990,4.60015,2470.343,2021-10-21T15:54:59Z
2021-10-21T13:56:38Z,42.805,6.029,13.2994,4.60011,2470.343,2021-10-21T15:58:02Z
2021-10-21T13:59:41Z,42.805,6.029,13.2996,4.60011,2470.334,2021-10-21T16:01:05Z
2021-10-21T14:02:44Z,42.805,6.029,13.2996,4.60012,2470.366,2021-10-21T16:04:08Z
2021-10-21T14:05:47Z,42.805,6.029,13.2996,4.60011,2470.343,2021-10-21T16:07:11Z
2021-10-21T14:08:50Z,42.805,6.029,13.2996,4.60010,2470.357,2021-10-21T16:10:14Z
2021-10-21T14:11:53Z,42.805,6.029,13.2993,4.60011,2470.343,2021-10-21T16:13:17Z
2021-10-21T14:14:57Z,42.805,6.029,13.2993,4.60011,2470.343,2021-10-21T16:16:20Z
2021-10-21T14:18:00Z,42.805,6.029,13.2996,4.60011,2470.366,2021-10-21T16:19:24Z
2021-10-21T14:21:03Z,42.805,6.029,13.2996,4.60011,2470.357,2021-10-21T16:22:27Z
2021-10-21T14:24:06Z,42.805,6.029,13.2993,4.60011,2470.343,2021-10-21T16:25:30Z
2021-10-21T14:27:09Z,42.805,6.029,13.2991,4.60014,2470.343,2021-10-21T16:28:33Z
2021-10-21T14:30:12Z,42.805,6.029,13.2993,4.60012,2470.343,2021-10-21T16:31:36Z
2021-10-21T14:33:15Z,42.805,6.029,13.2995,4.60013,2470.366,2021-10-21T16:34:39Z
2021-10-21T14:36:18Z,42.805,6.029,13.2995,4.60013,2470.404,2021-10-21T16:37:42Z
2021-10-21T14:39:22Z,42.805,6.029,13.2996,4.60013,2470.366,2021-10-21T16:40:46Z
2021-10-21T14:42:25Z,42.805,6.029,13.2998,4.60011,2470.357,2021-10-21T16:43:49Z
2021-10-21T14:45:28Z,42.805,6.029,13.2991,4.60013,2470.366,2021-10-21T16:46:52Z
2021-10-21T14:48:31Z,42.805,6.029,13.2996,4.60014,2470.343,2021-10-21T16:49:55Z
2021-10-21T14:51:34Z,42.805,6.029,13.2992,4.60014,2470.38,2021-10-21T16:52:58Z
2021-10-21T14:54:37Z,42.805,6.029,13.2996,4.60014,2470.366,2021-10-21T16:56:01Z
2021-10-21T14:57:40Z,42.805,6.029,13.2994,4.60012,2470.366,2021-10-21T16:59:04Z
2021-10-21T15:00:43Z,42.805,6.029,13.2993,4.60014,2470.357,2021-10-21T17:02:07Z